Date,TemperatureHighF,TemperatureAvgF,TemperatureLowF,DewpointHighF,DewpointAvgF,DewpointLowF,HumidityHigh,HumidityAvg,HumidityLow,PressureMaxIn,PressureMinIn,WindSpeedMaxMPH,WindSpeedAvgMPH,GustSpeedMaxMPH,PrecipitationSumIn
2014-1-1,2.8,-5.6,-23.2,-6.9,-13.4,-31.5,73,68,60,30.56,30.42,1,0,2,0.00
2014-1-2,7.4,-4.4,-18.7,-5.6,-13.0,-27.2,78,66,51,30.47,30.38,2,0,8,0.00
2014-1-3,16.1,-0.7,-22.0,10.4,-8.5,-30.3,78,69,59,30.41,29.54,6,3,14,0.00
2014-1-4,23.2,13.0,-4.3,20.7,8.1,-10.8,90,80,69,30.12,29.46,6,1,18,0.00
2014-1-5,-2.2,-8.8,-17.5,-7.6,-17.0,-26.0,77,67,57,30.32,30.12,2,0,8,0.00
2014-1-6,-16.1,-21.5,-28.7,-26.3,-31.7,-38.5,64,58,50,30.18,30.10,8,3,16,0.00
2014-1-7,-3.5,-15.3,-24.9,-14.1,-24.2,-33.4,69,63,57,30.28,30.08,7,3,13,0.00
2014-1-8,3.4,-14.4,-29.7,-8.8,-25.1,-99.9,74,61,54,30.57,30.28,4,-13,9,0.00
2014-1-9,14.0,-6.0,-29.7,10.6,-17.4,-99.9,86,62,47,30.53,30.03,4,-22,11,0.00
2014-1-10,25.4,21.2,14.0,23.4,18.6,10.6,92,89,86,30.03,29.41,4,1,11,0.00
2014-1-11,28.4,26.2,23.9,25.6,23.5,21.7,92,89,86,29.58,29.34,5,1,13,0.00
2014-1-12,35.6,28.8,22.5,28.2,24.4,19.9,90,84,72,29.62,29.36,5,1,17,0.00
2014-1-13,31.2,26.5,22.9,27.1,14.9,-99.9,92,76,62,29.59,29.39,7,2,10,0.00
2014-1-14,22.7,18.5,12.9,17.8,13.4,7.0,87,80,71,29.91,29.53,3,1,8,0.00
2014-1-15,13.1,9.7,5.0,6.8,2.9,-2.6,82,74,62,29.98,29.48,5,2,11,0.00
2014-1-16,27.3,12.2,7.9,24.8,-13.5,-99.9,90,66,80,29.64,29.32,4,-73,12,0.00
2014-1-17,19.2,14.4,7.7,13.7,9.5,2.5,86,80,74,29.91,29.63,2,1,10,0.00
2014-1-18,17.8,10.3,5.8,10.9,4.9,1.2,84,78,66,29.84,29.62,2,0,8,0.00
2014-1-19,27.5,21.7,12.9,22.7,17.5,6.5,86,84,75,29.63,29.38,9,3,13,0.00
2014-1-20,12.4,5.1,-4.3,5.4,-3.4,-12.2,80,68,55,30.30,29.63,2,1,8,0.00
2014-1-21,4.1,-4.2,-9.1,-10.3,-13.7,-16.7,73,64,45,30.37,30.07,3,0,11,0.00
2014-1-22,2.6,-0.5,-3.5,-6.4,-8.2,-11.1,76,69,58,30.22,29.88,4,1,14,0.00
2014-1-23,5.4,-3.4,-13.0,-6.7,-13.1,-21.2,74,63,50,30.56,30.22,5,1,13,0.00
2014-1-24,23.6,9.5,-13.0,19.9,3.7,-21.1,87,77,63,30.25,29.28,5,2,11,0.00
2014-1-25,20.5,2.3,-10.0,14.7,-7.7,-18.9,80,63,51,29.74,29.32,6,2,16,0.00
2014-1-26,6.3,0.7,-7.0,-1.0,-6.4,-13.9,76,71,62,29.80,29.28,8,2,18,0.00
2014-1-27,-4.3,-11.0,-17.2,-12.8,-22.2,-28.0,69,57,45,30.32,29.81,8,4,15,0.00
2014-1-28,-2.4,-11.4,-20.8,-16.5,-22.5,-99.9,67,58,47,30.32,30.02,11,5,20,0.00
2014-1-29,19.9,8.0,-8.4,7.8,-9.5,-99.9,68,56,40,30.02,29.58,7,3,12,0.00
2014-1-30,23.9,16.7,0.1,20.0,6.2,-99.9,87,73,60,29.88,29.44,3,1,10,0.00
2014-1-31,8.1,-4.6,-15.6,-4.8,-13.6,-23.3,72,65,51,30.13,29.88,6,1,7,0.00
2014-2-1,16.1,1.1,-16.6,4.3,-11.5,-99.9,81,65,56,30.10,29.95,2,-28,5,0.00
2014-2-2,12.8,1.6,-13.5,0.7,-7.8,-21.3,81,65,43,30.27,30.08,5,1,7,0.00
2014-2-3,22.9,0.7,-19.9,11.1,-7.7,-27.8,81,67,56,30.32,30.18,3,0,8,0.00
2014-2-4,19.4,2.2,-15.8,4.4,-6.7,-23.5,80,66,50,30.46,30.31,1,0,3,0.00
2014-2-5,8.8,4.7,-1.8,1.2,-2.9,-8.3,82,71,58,30.40,30.32,3,0,10,0.00
2014-2-6,5.2,-3.9,-13.0,-7.1,-12.9,-20.3,74,65,49,30.38,30.16,9,3,14,0.00
2014-2-7,12.4,0.1,-10.5,-5.4,-13.9,-99.9,76,59,39,30.19,30.06,12,-11,16,0.00
2014-2-8,18.0,-1.4,-19.0,2.1,-16.4,-99.9,79,61,47,30.27,30.09,3,-49,6,0.00
2014-2-9,11.2,0.1,-11.7,-0.6,-9.2,-20.2,82,65,50,30.30,30.09,3,0,9,0.00
2014-2-10,7.4,-5.5,-15.3,-10.4,-16.1,-24.5,73,60,42,30.48,30.29,4,1,8,0.00
2014-2-11,13.1,0.4,-26.0,-5.5,-12.9,-35.0,76,54,40,30.51,30.13,4,2,11,0.00
2014-2-12,22.1,10.4,3.5,10.6,1.4,-99.9,80,70,53,30.12,29.90,4,-6,10,0.00
2014-2-13,20.3,14.4,7.2,17.3,10.6,2.3,88,85,80,29.90,29.41,3,1,13,0.00
2014-2-14,19.7,9.0,-9.8,10.4,1.7,-17.5,84,72,57,30.01,29.55,2,1,11,0.00
2014-2-15,19.9,3.1,-17.5,10.2,-5.0,-25.2,83,69,47,30.05,29.91,2,0,7,0.00
2014-2-16,23.2,12.0,1.5,8.9,-1.4,-99.9,84,66,50,30.23,29.93,2,-34,6,0.00
2014-2-17,23.8,15.8,9.9,20.5,-3.4,-99.9,87,71,72,30.20,29.67,4,-82,13,0.00
2014-2-18,36.3,20.1,18.6,25.4,-10.3,-99.9,89,61,64,29.74,29.41,4,-179,6,0.00
2014-2-19,42.1,28.2,9.7,23.6,17.4,5.3,90,67,31,29.82,29.60,9,2,16,0.00
2014-2-20,37.3,32.0,25.8,30.2,25.2,17.6,92,76,57,29.76,28.87,6,1,11,0.00
2014-2-21,31.0,16.7,8.4,28.7,12.4,2.9,92,83,77,29.56,28.82,12,7,25,0.00
2014-2-22,15.7,8.6,3.7,5.0,1.2,-2.6,78,71,60,29.95,29.57,10,7,24,0.00
2014-2-23,16.2,7.4,-1.8,2.0,-2.1,-7.8,75,65,50,30.07,29.95,10,5,24,0.00
2014-2-24,15.9,7.7,2.0,-0.1,-3.1,-6.6,72,61,46,30.20,30.06,6,2,14,0.00
2014-2-25,7.9,0.4,-5.6,-3.8,-10.7,-15.7,74,59,44,30.19,30.08,8,2,17,0.00
2014-2-26,8.6,-1.4,-12.5,1.6,-11.5,-21.9,79,62,45,30.17,29.53,12,4,19,0.00
2014-2-27,2.4,-6.6,-20.8,-9.0,-22.5,-31.3,70,47,27,30.18,29.68,6,2,18,0.00
2014-2-28,7.2,-4.3,-25.3,1.0,-14.1,-34.6,76,63,36,30.18,29.98,4,1,12,0.00
2014-3-1,7.7,1.0,-5.9,-2.0,-10.8,-22.2,74,58,44,30.43,30.06,6,1,11,0.00
2014-3-2,8.8,-4.0,-14.3,-16.2,-22.8,-28.4,56,40,25,30.49,30.38,6,2,17,0.00
2014-3-3,17.8,-3.2,-28.7,0.8,-15.7,-38.8,76,56,31,30.55,30.26,4,0,7,0.00
2014-3-4,22.2,10.2,0.7,6.2,0.7,-5.4,79,66,43,30.34,30.15,4,0,6,0.00
2014-3-5,24.7,7.2,-14.3,0.2,-6.9,-22.1,80,55,28,30.54,30.33,1,0,6,0.00
2014-3-6,28.5,13.3,-9.1,14.8,3.4,-16.0,83,65,53,30.44,29.87,6,2,13,0.00
2014-3-7,31.3,24.4,18.9,25.1,15.3,-99.9,84,76,69,30.09,29.76,4,1,7,0.00
2014-3-8,30.6,17.1,2.0,10.1,5.5,-3.3,84,62,38,30.26,30.09,5,1,10,0.00
2014-3-9,42.3,25.9,6.1,28.2,16.6,0.7,81,68,51,30.14,29.59,4,1,8,0.00
2014-3-10,56.9,38.0,22.2,39.4,20.9,-99.9,93,61,26,29.60,29.43,8,-40,15,0.00
2014-3-11,42.5,33.0,29.7,27.7,8.9,-99.9,73,52,49,29.83,29.50,2,-53,7,0.00
2014-3-12,29.5,17.4,3.5,21.9,1.2,-8.1,75,51,26,30.09,29.81,5,1,11,0.00
2014-3-13,40.5,22.3,-1.6,28.0,12.9,-8.4,81,67,55,30.08,29.50,3,1,6,0.00
2014-3-14,40.6,33.9,26.6,32.8,27.9,19.7,92,79,64,29.76,29.36,8,2,12,0.00
2014-3-15,27.6,21.2,6.0,19.5,8.3,-4.6,78,59,34,30.44,29.74,4,1,13,0.00
2014-3-16,24.8,9.2,-9.6,-0.9,-6.9,-16.7,75,51,23,30.52,30.10,2,0,6,0.00
2014-3-17,23.3,17.7,12.4,18.6,10.6,-2.5,84,74,50,30.11,29.70,4,1,7,0.00
2014-3-18,38.5,28.3,19.7,28.1,21.9,14.8,89,77,59,29.82,29.75,2,0,6,0.01
2014-3-19,35.3,30.1,27.8,29.7,25.6,21.5,90,83,75,29.83,29.65,3,1,6,0.01
2014-3-20,40.5,30.4,20.5,21.7,18.4,14.1,81,63,37,29.95,29.83,5,1,8,0.00
2014-3-21,40.8,28.2,14.0,29.8,20.8,9.8,90,75,49,29.95,29.69,6,1,7,0.00
2014-3-22,32.2,18.6,7.0,27.5,8.3,-1.1,86,64,44,30.40,29.81,5,2,11,0.00
2014-3-23,22.1,10.0,-4.3,0.5,-6.6,-99.9,79,56,35,30.46,30.33,6,2,8,0.00
2014-3-24,27.3,13.0,-3.5,17.7,2.5,-9.5,82,64,40,30.34,29.96,9,3,18,0.00
2014-3-25,19.4,11.9,4.1,7.9,-1.8,-6.0,76,55,36,30.15,29.95,8,2,14,0.00
2014-3-26,29.0,15.4,-5.6,18.1,3.2,-12.0,83,60,43,30.20,29.78,4,1,6,0.00
2014-3-27,35.9,29.9,28.4,32.4,18.7,-99.9,92,85,66,29.80,29.46,3,1,10,0.01
2014-3-28,37.8,30.0,24.2,28.7,22.4,19.8,91,74,52,30.19,29.49,3,1,7,0.00
2014-3-29,43.2,32.1,22.5,24.4,20.7,17.9,86,64,41,30.25,30.13,2,0,6,0.00
2014-3-30,51.7,38.9,28.4,31.3,26.4,20.2,75,62,44,30.14,29.86,7,2,10,0.00
2014-3-31,53.9,42.2,38.0,36.1,25.9,-99.9,81,62,50,29.89,29.40,4,-41,8,0.00
2014-4-1,46.7,19.9,21.0,35.0,-21.2,-99.9,83,50,60,30.01,29.34,14,-158,17,0.00
2014-4-2,46.8,30.8,13.3,21.0,14.9,8.6,84,55,27,30.17,30.00,1,0,6,0.00
2014-4-3,37.5,32.0,27.9,27.5,18.6,9.9,90,59,38,30.12,29.74,3,1,5,0.00
2014-4-4,32.1,28.7,24.1,28.0,25.3,20.2,90,87,82,29.91,29.50,2,0,6,0.01
2014-4-5,44.6,28.9,6.3,28.2,18.9,1.4,91,68,43,30.10,29.90,6,1,12,0.00
2014-4-6,56.0,39.2,32.7,36.5,15.8,-99.9,78,53,45,29.97,29.74,5,-110,8,0.00
2014-4-7,57.0,43.0,30.4,43.8,34.0,27.8,94,73,35,29.77,29.60,2,0,3,0.00
2014-4-8,50.4,34.8,27.9,34.4,11.0,-99.9,92,56,41,29.89,29.58,3,-124,7,0.00
2014-4-9,55.7,40.3,21.3,33.1,25.5,17.8,89,59,36,29.89,29.42,6,2,17,0.00
2014-4-10,54.8,47.4,31.0,39.7,25.0,12.8,80,45,22,29.83,29.38,12,4,20,0.01
2014-4-11,53.8,37.8,24.7,40.5,27.5,18.7,87,68,39,29.94,29.82,7,1,10,0.01
2014-4-12,46.7,38.8,32.4,39.4,34.2,27.0,93,84,68,29.95,29.70,4,1,10,0.05
2014-4-13,48.0,39.1,31.2,38.7,34.7,28.9,93,84,70,29.78,29.68,3,1,6,0.00
2014-4-14,31.8,25.0,10.5,28.7,17.1,3.6,91,73,46,30.03,29.64,4,2,11,0.10
2014-4-15,32.4,18.6,1.8,12.9,4.4,-3.7,86,57,27,30.14,30.02,6,1,11,0.03
2014-4-16,32.4,25.4,12.8,28.4,20.2,6.6,89,80,68,30.21,30.05,3,1,6,0.00
2014-4-17,38.0,33.7,31.3,34.1,30.2,24.9,93,87,75,30.26,30.00,4,0,10,0.43
2014-4-18,45.7,34.8,21.1,25.5,20.4,10.9,90,59,24,30.35,30.25,3,0,6,0.22
2014-4-19,56.2,42.6,29.8,42.1,29.1,21.6,82,61,38,30.33,30.00,6,2,10,0.06
2014-4-20,65.3,52.4,41.6,50.8,43.9,36.4,89,73,58,30.03,29.90,3,0,5,0.01
2014-4-21,69.6,51.1,38.5,56.2,34.6,-99.9,96,66,24,29.91,29.68,8,2,8,0.00
2014-4-22,47.4,39.3,28.4,28.3,25.0,22.2,78,57,42,30.08,29.85,4,2,14,0.00
2014-4-23,54.7,39.9,21.6,27.9,22.4,18.1,91,55,27,30.14,29.97,2,0,6,0.00
2014-4-24,42.3,36.0,32.9,35.5,32.1,21.9,92,86,44,30.02,29.65,3,1,8,0.63
2014-4-25,44.9,39.8,32.7,38.9,34.3,28.0,93,81,58,29.85,29.62,10,2,16,0.02
2014-4-26,48.5,39.1,30.3,29.5,27.3,24.0,86,64,45,30.07,29.85,3,1,8,0.00
2014-4-27,39.5,36.3,32.7,32.8,25.8,14.9,86,66,45,30.09,29.86,6,2,8,0.20
2014-4-28,47.7,42.5,37.2,34.0,28.4,24.3,83,58,42,29.89,29.73,7,4,15,0.17
2014-4-29,40.5,37.0,33.2,35.9,33.8,30.7,93,88,73,29.74,29.56,6,2,11,0.41
2014-4-30,50.5,43.3,37.5,47.7,41.5,35.7,96,93,88,29.61,29.57,1,0,3,0.23
2014-5-1,43.8,41.2,39.5,41.9,38.8,37.0,94,91,85,29.69,29.53,3,0,5,0.08
2014-5-2,52.8,44.1,38.6,40.9,37.8,34.6,92,79,51,29.68,29.54,6,1,10,0.00
2014-5-3,54.2,46.1,40.5,39.5,32.3,24.9,89,62,32,29.79,29.51,8,2,20,0.01
2014-5-4,55.7,43.9,32.5,34.6,27.2,20.8,79,54,27,30.00,29.79,4,1,9,0.00
2014-5-5,55.4,45.1,36.0,40.3,35.2,27.7,92,70,46,30.05,29.92,2,0,3,0.07
2014-5-6,61.5,49.3,35.0,37.2,33.0,25.9,89,57,36,30.00,29.87,3,1,10,0.00
2014-5-7,62.3,46.1,41.6,49.3,34.3,-99.9,89,75,45,29.91,29.75,3,1,6,0.27
2014-5-8,70.9,52.9,45.7,59.2,44.7,-99.9,94,85,59,29.82,29.52,5,0,5,0.54
2014-5-9,60.1,53.7,45.5,58.1,48.9,38.4,95,84,70,29.65,29.39,11,4,17,0.10
2014-5-10,69.6,54.6,40.9,42.1,32.8,20.7,88,51,17,29.81,29.65,5,2,9,0.00
2014-5-11,74.0,59.5,49.4,55.4,42.5,-99.9,92,61,36,29.82,29.75,1,-42,5,0.00
2014-5-12,68.9,52.1,51.9,59.4,30.0,-99.9,95,71,61,29.80,29.62,8,-110,8,1.06
2014-5-13,59.6,49.7,44.9,57.6,41.8,-99.9,93,76,60,30.03,29.55,10,-3,16,0.02
2014-5-14,55.4,45.8,36.0,37.7,28.5,-99.9,88,56,30,30.13,30.03,7,-13,16,0.00
2014-5-15,47.6,36.7,34.3,30.3,10.6,-99.9,70,47,44,30.08,29.96,4,-124,10,0.00
2014-5-16,48.0,40.0,29.5,31.7,25.6,22.3,83,59,37,30.00,29.94,4,0,6,0.00
2014-5-17,60.9,43.0,29.4,34.3,15.0,-99.9,88,46,22,29.96,29.88,7,-95,14,0.00
2014-5-18,69.9,51.3,39.1,42.0,17.9,-99.9,72,38,24,29.98,29.89,9,-117,15,0.00
2014-5-19,62.7,42.9,41.1,49.1,15.3,-99.9,90,57,35,30.03,29.83,14,-152,14,0.21
2014-5-20,72.1,57.9,48.0,57.6,50.4,45.2,92,78,46,29.82,29.71,5,0,6,0.13
2014-5-21,64.7,57.8,48.8,55.8,46.7,43.2,94,69,49,29.94,29.70,6,2,12,0.00
2014-5-22,62.4,54.2,45.1,46.5,42.3,37.8,86,66,43,30.10,29.94,6,1,7,0.00
2014-5-23,72.3,56.0,36.5,48.1,39.6,33.3,92,60,28,30.17,30.05,3,0,5,0.00
2014-5-24,79.0,60.7,44.8,51.6,42.3,-99.9,91,61,27,30.11,29.96,4,1,7,0.00
2014-5-25,80.3,62.5,45.7,53.5,41.3,-99.9,91,59,27,30.00,29.82,5,1,9,0.00
2014-5-26,82.0,69.7,57.5,65.5,59.5,51.1,94,72,47,29.83,29.71,5,1,8,0.04
2014-5-27,72.5,65.0,59.8,62.2,57.7,45.5,96,78,54,29.90,29.75,1,0,3,0.00
2014-5-28,79.8,66.1,54.7,51.0,42.5,32.6,69,46,19,30.01,29.90,1,0,3,0.00
2014-5-29,83.6,66.6,45.7,52.2,47.8,42.6,90,56,25,30.07,29.97,2,0,6,0.00
2014-5-30,85.3,69.5,48.3,57.5,50.7,45.0,92,57,25,30.10,29.99,3,0,11,0.00
2014-5-31,84.1,72.5,58.7,60.1,52.9,47.7,76,52,29,30.04,29.84,5,1,10,0.01
2014-6-1,77.2,68.9,63.9,68.7,63.2,57.1,93,83,62,29.86,29.66,6,2,10,0.47
2014-6-2,74.0,67.5,63.2,65.9,62.8,55.2,95,85,64,29.67,29.47,7,2,14,0.55
2014-6-3,72.8,59.6,52.6,55.9,44.8,-99.9,91,66,44,29.79,29.52,10,-38,14,0.00
2014-6-4,76.8,64.7,53.3,53.7,48.4,41.8,91,60,31,29.83,29.76,2,0,4,0.00
2014-6-5,75.3,63.4,50.4,59.0,52.0,44.2,87,68,45,29.86,29.76,5,1,6,0.00
2014-6-6,79.8,67.7,58.6,59.6,56.5,51.6,89,70,38,29.86,29.78,4,1,7,0.00
2014-6-7,67.4,55.0,54.2,60.4,43.6,-99.9,92,78,65,29.93,29.82,3,-70,8,0.00
2014-6-8,72.1,58.4,46.4,53.0,41.1,-99.9,92,60,27,30.01,29.93,2,-14,8,0.00
2014-6-9,68.6,56.3,50.1,51.0,39.4,-99.9,89,61,41,29.99,29.90,2,-28,6,0.00
2014-6-10,73.5,54.5,42.6,50.2,30.4,-99.9,94,61,27,29.96,29.81,2,-5,5,0.00
2014-6-11,79.4,64.4,45.8,56.4,49.2,43.0,91,62,34,29.84,29.60,2,0,8,0.00
2014-6-12,62.9,57.1,46.5,58.1,50.5,43.4,93,79,60,29.74,29.53,11,4,22,0.00
2014-6-13,69.9,55.9,44.8,43.4,37.7,30.0,89,56,23,29.93,29.74,5,2,11,0.00
2014-6-14,69.1,56.7,40.1,49.5,44.4,36.6,89,65,44,29.98,29.81,3,1,8,0.03
2014-6-15,75.4,61.8,50.5,65.7,53.7,42.0,92,76,53,29.90,29.51,8,2,18,0.80
2014-6-16,82.2,70.2,57.6,61.0,55.0,49.4,88,62,34,29.83,29.62,7,2,16,0.04
2014-6-17,85.1,73.2,62.9,66.2,59.3,54.3,90,64,39,29.80,29.51,9,1,19,0.02
2014-6-18,74.6,67.5,61.6,65.5,59.5,54.3,93,76,63,29.98,29.69,2,1,8,0.02
2014-6-19,73.9,65.7,58.6,61.8,57.9,53.8,88,76,60,30.04,29.91,3,1,12,0.00
2014-6-20,72.1,63.1,57.5,64.7,59.4,54.5,95,88,74,29.94,29.81,1,0,5,0.23
2014-6-21,76.8,63.3,57.2,66.0,56.1,-99.9,95,83,53,29.85,29.75,2,-20,10,0.12
2014-6-22,79.9,67.7,58.9,65.6,61.1,56.4,95,81,51,29.83,29.71,2,0,6,0.00
2014-6-23,77.0,68.2,61.5,66.2,62.7,59.1,95,83,64,29.74,29.67,3,0,6,0.35
2014-6-24,79.8,63.4,60.2,63.5,46.5,-99.9,94,69,47,29.86,29.71,3,-90,7,0.00
2014-6-25,65.2,61.2,54.8,58.9,57.2,51.9,93,87,79,29.99,29.84,1,0,5,0.12
2014-6-26,74.2,63.4,51.6,59.9,53.2,-99.9,95,77,59,30.01,29.89,2,0,3,0.00
2014-6-27,76.7,65.1,59.5,69.4,55.6,-99.9,94,83,74,29.92,29.76,3,-20,10,0.86
2014-6-28,84.1,75.3,67.8,70.7,68.0,65.4,93,79,58,29.81,29.64,6,2,12,0.06
2014-6-29,80.1,71.5,65.0,68.9,63.5,60.3,94,78,51,29.67,29.56,6,2,17,0.15
2014-6-30,83.0,71.7,63.7,67.2,63.2,56.6,92,76,42,29.60,29.36,9,2,12,0.01
2014-7-1,73.5,65.2,58.7,63.1,59.4,56.4,92,82,66,29.59,29.34,7,2,10,0.16
2014-7-2,68.8,57.8,47.0,56.1,47.3,36.6,92,72,34,29.98,29.60,3,1,8,0.00
2014-7-3,73.3,57.9,42.5,55.5,45.1,39.1,93,67,32,30.14,29.97,4,1,8,0.00
2014-7-4,76.5,62.2,41.6,54.7,46.3,39.2,93,61,29,30.23,30.06,2,0,6,0.00
2014-7-5,79.2,66.5,60.7,62.5,47.6,-99.9,80,61,49,30.06,29.78,5,-48,7,0.00
2014-7-6,77.0,69.0,64.7,70.6,64.8,60.6,92,86,76,29.80,29.46,4,1,8,0.06
2014-7-7,77.6,67.9,60.1,64.8,60.2,55.0,93,77,56,29.58,29.44,8,2,10,0.14
2014-7-8,69.3,58.0,55.7,60.1,49.3,-99.9,95,82,65,29.74,29.45,4,-43,12,0.27
2014-7-9,68.3,54.9,49.2,53.1,30.4,-99.9,93,62,44,29.97,29.72,4,-76,8,0.02
2014-7-10,76.8,63.5,44.8,60.7,53.0,43.0,95,71,45,30.04,29.94,2,0,5,0.01
2014-7-11,75.1,69.0,63.7,61.7,60.3,57.8,88,74,57,29.99,29.89,6,2,10,0.00
2014-7-12,77.2,52.6,62.4,68.7,48.7,60.0,93,65,73,29.91,29.74,5,0,6,0.20
2014-7-13,71.1,64.6,59.3,61.0,52.8,42.4,93,68,37,29.80,29.68,7,2,11,0.00
2014-7-14,61.5,55.8,49.8,53.2,50.3,47.5,93,82,63,29.84,29.71,4,1,7,0.36
2014-7-15,64.0,55.6,47.3,51.9,48.7,44.5,93,79,51,29.93,29.81,4,1,14,0.02
2014-7-16,70.3,56.5,42.3,52.2,45.7,37.2,93,71,33,29.97,29.89,3,0,6,0.00
2014-7-17,74.9,61.2,44.6,57.1,50.4,42.4,93,71,43,29.97,29.92,5,1,8,0.00
2014-7-18,77.0,65.4,52.0,59.3,55.1,49.7,92,71,46,30.01,29.90,4,1,6,0.00
2014-7-19,76.0,68.6,60.7,62.1,59.0,56.1,86,72,57,29.91,29.83,4,1,8,0.00
2014-7-20,79.0,71.4,64.0,66.1,62.4,58.7,84,74,62,29.86,29.77,4,1,7,0.00
2014-7-21,83.8,72.9,67.6,71.7,64.9,62.6,85,73,64,29.85,29.78,3,1,6,0.00
2014-7-22,81.2,68.3,57.6,72.1,60.2,54.7,91,70,56,30.00,29.66,9,2,11,0.00
2014-7-23,73.2,53.9,53.2,56.1,45.1,50.4,94,59,49,30.14,30.01,1,0,5,0.00
2014-7-24,76.7,61.4,47.3,58.0,49.3,44.3,93,67,38,30.12,29.85,4,0,7,0.00
2014-7-25,68.1,65.0,60.9,62.3,60.3,56.5,92,85,75,29.84,29.71,2,1,6,0.10
2014-7-26,84.3,72.6,64.7,67.8,61.0,48.4,94,71,29,29.72,29.60,7,2,14,0.00
2014-7-27,70.1,59.8,52.5,64.3,54.8,49.9,93,79,70,29.96,29.56,4,1,7,0.06
2014-7-28,72.3,55.3,48.2,56.4,46.6,46.0,93,67,47,30.05,29.93,3,1,10,0.03
2014-7-29,74.6,43.1,52.5,58.5,38.1,48.6,94,55,51,29.96,29.85,6,0,6,0.02
2014-7-30,72.3,44.8,51.6,58.3,37.4,47.0,96,50,44,29.99,29.83,6,1,10,0.00
2014-7-31,78.1,63.9,48.8,61.9,52.2,47.2,96,71,38,29.89,29.85,5,1,9,0.00
2014-8-1,79.6,62.2,50.7,63.6,50.2,48.5,96,65,39,29.99,29.88,3,0,6,0.00
2014-8-2,81.8,48.1,48.6,62.9,39.5,46.1,93,48,41,30.07,29.94,2,0,5,0.00
2014-8-3,83.0,66.3,58.4,68.2,58.0,55.1,94,74,42,30.00,29.92,6,1,8,0.00
2014-8-4,76.8,48.6,60.9,65.0,41.7,51.0,96,57,62,30.01,29.90,9,0,14,0.77
2014-8-5,77.6,58.6,58.1,61.3,49.4,53.7,95,62,47,30.04,29.93,1,0,3,0.00
2014-8-6,78.5,65.1,50.5,61.1,55.0,48.6,94,73,43,30.00,29.95,1,0,4,0.00
2014-8-7,80.1,67.2,52.8,63.6,54.9,50.1,92,69,37,30.05,29.95,1,0,5,0.00
2014-8-8,80.5,65.9,51.6,59.8,53.9,48.5,92,69,34,30.07,29.98,2,0,6,0.00
2014-8-9,78.8,66.5,51.7,61.2,55.5,49.2,92,71,43,30.08,29.99,1,0,3,0.00
2014-8-10,80.5,67.9,52.0,60.8,56.9,49.5,92,71,41,30.03,29.88,1,0,4,0.00
2014-8-11,63.7,33.7,56.5,60.1,28.4,52.7,93,48,86,29.88,29.78,8,0,8,0.86
2014-8-12,71.8,58.8,52.9,55.4,47.7,45.1,89,65,39,29.87,29.81,4,1,10,0.00
2014-8-13,74.2,63.3,48.9,58.6,51.5,44.0,93,69,36,30.04,29.83,3,0,8,0.00
2014-8-14,71.1,55.7,39.2,51.1,43.6,36.6,95,68,35,30.10,29.94,2,0,9,0.00
2014-8-15,78.8,58.4,42.3,63.9,49.7,39.6,95,74,52,29.96,29.72,4,1,6,0.00
2014-8-16,73.0,67.3,59.8,68.4,63.5,55.9,93,88,73,29.88,29.68,3,0,6,0.05
2014-8-17,75.8,63.8,55.3,60.3,55.4,51.2,92,76,51,29.96,29.83,2,0,3,0.00
2014-8-18,68.4,62.9,57.5,65.0,60.0,54.1,94,90,78,29.84,29.55,2,0,5,0.68
2014-8-19,72.7,65.4,61.0,64.7,61.1,57.7,95,87,71,29.67,29.50,3,0,5,0.01
2014-8-20,70.3,63.9,58.9,62.2,58.7,56.0,93,84,69,29.85,29.66,2,0,3,0.00
2014-8-21,72.1,64.4,54.8,65.4,61.4,52.5,96,90,79,29.85,29.78,2,0,8,0.00
2014-8-22,74.6,69.4,65.2,70.3,66.6,62.6,95,91,85,29.89,29.77,1,0,2,0.00
2014-8-23,75.3,70.8,68.3,69.8,68.1,66.0,96,91,83,29.91,29.86,1,0,5,0.00
2014-8-24,79.0,71.1,66.0,69.6,66.1,62.7,91,85,70,29.91,29.79,6,1,7,0.00
2014-8-25,85.1,73.3,65.8,70.3,65.1,58.0,95,77,51,29.85,29.75,6,1,13,0.86
2014-8-26,72.3,62.3,54.5,58.1,52.5,48.7,89,72,47,30.06,29.86,5,1,7,0.00
2014-8-27,72.5,61.3,51.4,56.9,51.8,47.4,92,74,45,30.11,30.03,3,0,6,0.01
2014-8-28,72.7,59.9,44.2,60.2,52.0,41.7,95,77,52,30.08,29.90,2,0,7,0.01
2014-8-29,71.3,63.2,57.8,66.9,60.6,55.5,95,91,83,29.91,29.67,3,0,6,0.91
2014-8-30,66.0,63.3,58.3,64.8,61.0,55.1,96,92,87,29.82,29.61,2,0,3,0.12
2014-8-31,77.6,63.9,51.9,66.7,59.2,49.9,96,85,63,29.85,29.60,3,1,8,0.00
2014-9-1,73.0,60.5,57.8,66.4,55.9,53.6,94,82,57,29.68,29.48,8,2,13,0.75
2014-9-2,74.4,50.6,51.4,60.4,39.9,49.2,95,55,44,29.78,29.68,7,1,8,0.00
2014-9-3,69.8,42.4,54.2,63.7,36.3,53.0,94,50,71,29.85,29.67,3,0,4,1.37
2014-9-4,71.3,55.9,62.4,67.7,54.0,61.5,97,78,82,29.81,29.56,7,1,7,1.15
2014-9-5,67.6,58.8,52.5,66.4,52.3,49.7,96,80,70,30.02,29.64,6,1,7,0.04
2014-9-6,71.1,58.0,48.2,53.8,48.0,43.5,93,73,37,30.06,30.02,5,1,10,0.00
2014-9-7,75.4,60.5,48.0,57.5,50.0,45.8,95,73,38,30.07,29.97,7,1,13,0.00
2014-9-8,71.8,61.0,51.7,56.4,53.2,49.5,94,77,51,29.98,29.81,4,1,11,0.01
2014-9-9,77.7,66.2,57.0,64.0,59.3,53.9,92,79,59,29.84,29.68,2,0,3,0.12
2014-9-10,65.8,51.9,40.8,63.4,49.6,36.4,96,92,83,29.92,29.51,5,1,12,1.93
2014-9-11,51.1,43.6,34.0,40.0,36.5,31.1,89,76,58,30.30,29.92,2,0,7,0.00
2014-9-12,48.9,39.9,31.6,41.1,36.4,29.3,95,87,64,30.38,30.25,4,0,6,0.20
2014-9-13,57.8,46.0,34.7,41.8,36.3,30.5,94,72,40,30.29,30.17,2,0,6,0.02
2014-9-14,61.8,51.9,44.6,47.6,42.0,37.7,86,70,50,30.16,29.96,7,2,12,0.00
2014-9-15,60.4,47.4,36.9,47.4,38.9,33.8,94,75,42,30.11,30.03,4,0,7,0.00
2014-9-16,66.1,49.3,32.2,46.5,39.0,29.8,94,71,41,30.11,29.94,6,2,12,0.00
2014-9-17,71.3,53.4,38.3,55.3,44.2,36.2,94,74,42,29.99,29.84,3,0,6,0.00
2014-9-18,59.0,49.1,43.8,48.9,44.0,40.2,91,83,66,30.13,29.98,1,0,7,0.00
2014-9-19,68.1,58.6,47.7,56.8,51.4,45.5,95,78,60,30.03,29.59,8,2,18,0.00
2014-9-20,74.6,66.2,53.1,62.5,57.1,50.5,91,74,49,29.61,29.53,8,2,22,0.17
2014-9-21,55.9,50.6,37.6,51.1,44.5,34.7,94,81,58,30.13,29.55,3,1,12,0.25
2014-9-22,66.8,48.9,35.0,52.2,42.1,32.9,95,79,51,30.17,30.07,7,1,15,0.00
2014-9-23,76.0,57.0,42.2,55.9,47.8,40.0,96,75,39,30.19,30.11,2,0,7,0.00
2014-9-24,68.8,57.7,47.0,56.3,50.4,44.8,94,78,52,30.21,30.15,3,0,10,0.22
2014-9-25,72.1,60.8,52.5,60.4,54.4,49.9,93,81,53,30.18,30.11,2,0,10,0.02
2014-9-26,77.2,60.3,45.2,57.2,51.0,43.0,96,75,37,30.19,30.11,1,0,7,0.00
2014-9-27,79.4,63.6,51.7,62.2,55.0,49.5,94,76,49,30.17,30.03,2,0,8,0.00
2014-9-28,81.4,64.5,51.3,61.7,55.5,49.3,95,76,42,30.08,29.90,4,0,8,0.00
2014-9-29,59.2,48.3,38.8,56.7,43.9,35.0,93,85,69,30.10,29.87,2,1,10,0.13
2014-9-30,59.2,45.8,38.3,46.5,39.6,35.1,90,80,57,30.08,29.91,2,0,11,0.00
2014-10-1,56.9,50.2,43.8,53.1,46.3,41.3,93,87,71,29.96,29.76,3,1,8,0.13
2014-10-2,63.5,53.5,49.2,58.2,50.5,47.0,95,84,78,29.78,29.49,3,0,6,0.65
2014-10-3,52.9,45.4,35.8,50.9,42.2,33.0,94,89,79,29.57,29.40,10,4,21,0.27
2014-10-4,42.3,37.7,33.2,37.7,33.8,29.7,94,86,71,29.57,29.46,6,2,11,0.24
2014-10-5,46.2,39.6,35.2,33.6,30.1,26.3,80,69,51,29.55,29.42,7,3,16,0.00
2014-10-6,53.5,43.3,34.6,39.6,32.0,27.6,91,67,38,29.44,29.33,7,1,13,0.00
2014-10-7,56.5,47.4,42.3,40.5,33.1,27.7,87,59,40,29.68,29.32,8,4,18,0.00
2014-10-8,50.1,42.2,36.5,30.8,28.2,25.9,72,59,40,29.94,29.67,10,3,17,0.00
2014-10-9,53.3,39.9,30.0,35.0,30.5,25.6,89,70,48,30.13,29.94,5,1,14,0.00
2014-10-10,52.6,40.2,25.0,37.5,29.6,22.0,93,68,43,30.20,30.11,6,1,11,0.00
2014-10-11,56.3,39.0,23.6,31.5,27.4,20.6,92,67,35,30.23,30.02,1,0,5,0.00
2014-10-12,59.5,46.7,32.5,42.3,34.3,28.2,87,64,36,30.02,29.78,5,1,15,0.00
2014-10-13,52.0,43.7,47.1,48.9,40.4,42.9,94,80,79,29.79,29.61,1,0,6,0.56
2014-10-14,51.7,48.4,46.2,48.0,44.8,40.2,95,88,75,29.82,29.57,5,1,11,0.56
2014-10-15,61.0,49.9,41.1,46.5,40.6,36.0,92,71,51,29.85,29.77,4,1,11,0.00
2014-10-16,63.7,46.4,36.3,49.8,41.9,33.9,95,85,56,29.81,29.43,1,0,3,0.00
2014-10-17,47.4,45.2,42.2,45.2,42.1,38.0,94,89,78,29.88,29.36,3,1,16,0.14
2014-10-18,47.7,38.3,29.8,38.2,31.6,26.6,91,78,48,30.13,29.88,3,1,14,0.03
2014-10-19,53.5,40.8,28.8,44.7,35.8,26.2,92,83,68,30.09,29.69,3,1,12,0.01
2014-10-20,49.1,44.4,37.8,43.5,40.6,35.7,94,87,76,30.01,29.68,2,0,10,0.00
2014-10-21,52.5,40.8,31.5,38.2,34.2,28.9,92,78,54,30.24,30.01,2,0,6,0.00
2014-10-22,55.3,42.3,31.3,36.7,32.1,27.0,93,71,35,30.31,30.08,3,1,10,0.00
2014-10-23,45.8,42.8,41.9,44.4,39.8,36.7,95,89,76,30.08,29.93,2,0,10,0.10
2014-10-24,59.8,40.3,43.8,51.6,36.2,42.5,96,67,66,29.94,29.73,3,0,7,0.00
2014-10-25,59.6,52.8,43.8,50.9,33.3,20.7,91,52,24,29.87,29.70,9,3,22,0.00
2014-10-26,60.5,44.9,29.8,34.2,28.3,24.4,85,55,26,29.94,29.69,3,0,7,0.00
2014-10-27,60.2,50.7,42.2,48.1,43.0,30.0,93,76,45,29.68,29.44,1,0,7,0.29
2014-10-28,51.0,44.0,36.0,47.1,38.6,31.6,90,81,71,29.74,29.44,10,5,22,0.03
2014-10-29,42.2,38.5,35.0,34.1,32.5,31.2,89,79,70,30.03,29.74,7,2,15,0.00
2014-10-30,41.8,38.0,31.2,32.9,31.6,28.2,90,78,67,30.04,29.96,4,1,10,0.01
2014-10-31,34.1,29.3,21.9,28.7,23.3,17.5,91,78,63,30.46,30.05,4,1,14,0.06
2014-11-1,41.2,27.5,14.4,25.2,18.2,10.7,91,70,43,30.49,30.26,2,0,6,0.01
2014-11-2,49.6,38.7,30.7,26.3,23.8,21.9,76,56,36,30.26,29.94,4,1,11,0.01
2014-11-3,49.5,42.4,35.5,42.1,32.3,22.4,91,68,51,29.94,29.65,3,0,8,0.13
2014-11-4,46.8,41.1,37.3,45.2,34.4,27.3,94,78,64,29.84,29.60,8,4,17,0.06
2014-11-5,39.2,35.5,32.7,32.2,28.7,25.0,93,77,61,29.97,29.84,6,2,12,0.04
2014-11-6,34.1,16.3,32.2,31.0,15.0,29.5,94,46,86,30.14,29.86,157,1,157,0.11
2014-11-7,33.7,11.6,27.2,31.4,10.2,24.4,92,38,89,30.12,29.58,10,0,11,0.01
2014-11-8,35.0,29.9,30.1,32.5,22.3,16.1,93,72,50,29.82,29.57,8,3,11,0.10
2014-11-9,35.9,29.2,18.9,30.9,23.3,12.9,94,80,46,29.82,29.62,5,1,8,0.09
2014-11-10,29.4,26.3,20.6,27.4,22.3,16.8,92,85,70,29.83,29.60,3,1,6,0.00
2014-11-11,29.7,25.5,20.2,27.9,22.5,17.0,93,88,83,30.05,29.69,3,1,7,0.00
2014-11-12,26.3,20.6,18.1,17.9,16.1,14.1,88,82,70,30.20,30.05,7,2,12,0.00
2014-11-13,24.4,19.1,11.6,18.0,14.3,8.2,89,81,69,30.24,30.18,6,1,10,0.00
2014-11-14,24.1,17.0,2.8,14.8,10.2,-2.8,85,75,58,30.31,30.23,5,1,8,0.00
2014-11-15,20.6,9.8,-5.2,11.9,3.1,-11.1,85,75,55,30.32,30.10,6,1,8,0.00
2014-11-16,22.7,16.5,7.4,15.7,10.5,1.7,86,77,61,30.09,29.76,7,1,8,0.00
2014-11-17,11.6,8.8,5.6,3.9,2.0,0.4,81,74,63,29.78,29.70,7,4,18,0.00
2014-11-18,12.3,9.6,6.7,3.4,1.1,-0.7,77,68,57,29.92,29.76,10,4,12,0.00
2014-11-19,18.6,9.4,9.3,11.2,5.1,3.0,84,52,68,29.84,29.65,12,1,12,0.00
2014-11-20,11.6,5.9,-3.5,3.4,-0.5,-10.4,79,49,56,30.26,29.65,7,2,12,0.01
2014-11-21,26.7,12.3,-5.0,19.2,1.5,-10.4,82,63,43,30.33,29.89,4,2,12,0.00
2014-11-22,35.0,32.3,27.0,33.7,29.3,19.5,95,88,73,29.88,29.60,3,1,6,0.13
2014-11-23,45.2,42.0,35.0,44.4,41.2,33.7,98,97,95,29.60,29.09,4,1,6,0.24
2014-11-24,39.6,30.1,20.0,39.1,29.0,17.8,98,96,91,29.66,29.00,4,1,7,0.23
2014-11-25,21.3,15.2,3.7,18.6,11.4,-0.3,92,85,78,30.13,29.66,4,1,7,0.00
2014-11-26,25.1,18.7,9.2,20.6,15.4,6.6,90,87,79,30.23,30.10,2,0,2,0.00
2014-11-27,16.7,5.6,-9.3,13.5,-0.3,-15.6,87,76,66,30.41,30.24,2,0,5,0.00
2014-11-28,15.9,9.6,-7.9,13.0,5.5,-13.5,88,83,76,30.34,29.79,1,0,6,0.00
2014-11-29,32.2,27.0,15.4,31.2,25.4,12.5,96,93,88,29.79,29.39,4,1,5,0.01
2014-11-30,31.9,16.0,2.6,30.9,11.2,-3.8,96,77,72,30.33,29.44,4,1,8,0.00
2014-12-1,5.4,-0.9,-10.7,-4.1,-7.3,-17.0,73,49,52,30.71,30.33,6,1,8,0.00
2014-12-2,20.0,12.6,-10.7,15.4,7.9,-16.7,87,81,70,30.56,29.89,6,2,12,0.00
2014-12-3,18.3,11.7,-16.0,13.8,6.4,-22.6,86,66,64,30.35,29.88,8,2,8,0.00
2014-12-4,22.1,11.2,-4.3,10.3,3.0,-9.4,86,63,48,30.43,30.19,3,0,6,0.00
2014-12-5,30.1,24.9,14.6,26.4,21.7,9.6,92,88,80,30.32,30.13,3,0,4,0.00
2014-12-6,30.9,14.4,2.2,24.5,8.4,-2.3,92,78,55,30.71,30.33,0,0,1,0.01
2014-12-7,31.0,25.0,11.9,24.1,18.5,8.1,88,76,67,30.63,30.08,5,2,8,0.00
2014-12-8,32.8,29.3,26.4,31.3,27.3,23.8,94,92,88,30.14,29.86,3,1,6,0.00
2014-12-9,28.4,24.8,18.6,26.4,21.2,15.9,92,86,78,30.43,30.15,2,0,4,0.00
2014-12-10,22.2,16.9,10.4,17.5,13.8,6.3,91,87,80,30.43,30.28,1,0,1,0.00
2014-12-11,22.5,18.0,12.3,20.5,15.7,9.4,92,90,88,30.27,30.17,4,1,7,0.00
2014-12-12,31.9,28.0,22.1,30.1,26.5,20.1,96,94,92,30.19,30.08,3,1,6,0.00
2014-12-13,39.3,35.8,29.7,38.8,35.1,28.7,99,97,96,30.08,29.91,5,1,7,0.09
2014-12-14,42.9,40.1,37.3,42.6,39.9,36.8,100,99,98,29.91,29.80,0,0,2,0.00
2014-12-15,42.9,31.6,37.2,42.9,31.4,36.4,100,77,96,29.80,29.64,17,0,17,0.15
2014-12-16,38.3,27.2,19.9,37.8,25.7,16.4,98,94,86,30.08,29.63,3,1,8,0.06
2014-12-17,22.9,19.0,12.9,18.4,14.3,9.2,88,82,69,30.25,30.08,4,1,7,0.00
2014-12-18,25.6,16.9,6.1,18.8,12.9,2.0,88,83,72,30.29,30.21,1,0,1,0.00
2014-12-19,24.8,15.3,5.6,19.4,11.5,1.8,90,85,74,30.33,30.20,1,0,4,0.00
2014-12-20,27.9,25.4,21.9,25.2,23.0,19.4,93,90,86,30.21,30.10,1,0,3,0.00
2014-12-21,32.9,29.2,27.3,32.1,27.3,25.0,97,90,91,30.10,29.80,7,1,7,0.00
2014-12-22,33.5,24.2,31.2,32.7,23.1,30.2,98,75,95,29.81,29.67,6,1,8,0.00
2014-12-23,34.1,19.5,31.0,32.0,18.7,30.2,97,57,92,29.71,29.56,1,0,3,0.01
2014-12-24,32.8,31.3,29.3,31.4,29.6,27.4,96,93,89,29.71,29.45,3,0,6,0.00
2014-12-25,32.4,30.4,28.8,28.6,27.6,26.7,94,90,83,29.87,29.48,5,1,7,0.00
2014-12-26,32.2,30.4,28.8,30.6,28.8,27.3,95,94,91,30.01,29.84,0,0,2,0.00
2014-12-27,32.4,25.8,9.0,29.6,23.3,5.1,95,90,83,30.02,29.81,4,1,11,0.00
2014-12-28,20.0,10.2,-5.9,14.8,5.9,-11.5,90,82,76,30.34,29.99,2,0,5,0.00
2014-12-29,10.5,-3.7,-12.8,5.1,-9.3,-18.5,85,76,70,30.64,30.34,2,0,7,0.00
2014-12-30,3.0,-3.1,-14.0,-5.2,-7.7,-20.7,77,46,64,30.72,30.55,5,1,8,0.00
2014-12-31,6.5,-3.7,-18.4,0.5,-10.0,-24.9,79,74,68,30.54,29.89,6,2,10,0.00
2015-1-1,23.2,14.1,4.7,16.6,8.3,-2.9,86,78,67,30.09,29.75,7,2,13,0.00
2015-1-2,16.1,6.1,-10.3,7.5,-2.2,-16.0,81,69,54,30.28,30.09,1,0,2,0.00